Wind_Speed
2 3 4 4 3 2 3 3 3 2 1 1 1 1 1 2 2 1 1 1 1 1 2 2 2 2 2 2 2 2 1 1 2 2 2 2 2 2 2 2 3 3 3
2 3 3 3 3 2 2 3 3 3 2 1 1 1 1 1 2 2 2 2 2 2 2 2 2 3 3 3 3 2 2 2 2 2 2 3 3 3 3 3 3 3 4
2 2 3 2 2 2 2 3 3 3 2 2 2 2 2 2 2 2 3 3 3 3 3 2 2 3 3 4 3 3 2 3 2 2 3 3 4 4 4 4 4 5 4
2 3 3 3 3 3 4 4 4 4 4 4 3 3 3 3 2 3 3 3 3 3 3 3 3 3 3 3 4 4 3 3 3 3 3 3 4 4 5 5 5 5 5
3 3 4 4 4 4 5 5 5 5 5 5 4 3 3 3 3 4 3 3 3 3 4 4 4 4 3 4 5 5 4 4 5 4 4 4 4 5 5 5 5 5 6
4 4 4 5 6 6 6 7 6 6 6 6 5 5 4 4 4 4 4 4 4 4 4 5 5 5 5 5 6 6 6 6 6 5 5 5 5 6 6 5 6 6 7
4 5 5 6 6 7 7 7 6 6 6 5 5 5 4 4 4 4 4 4 5 5 6 6 6 6 6 7 7 7 7 7 7 7 7 7 7 7 7 7 7 8 8
6 6 6 6 6 7 7 7 6 6 5 5 4 5 4 4 4 4 5 6 6 7 7 7 8 8 8 8 8 9 9 9 8 8 8 8 8 8 8 8 8 9 9
8 8 7 7 7 7 7 6 6 5 5 5 5 5 4 5 5 5 6 7 7 8 8 9 9 9 9 9 9 9 9 9 9 9 9 9 9 9 10 10 10 10 10
10 9 8 7 8 7 7 7 6 6 6 6 6 5 5 6 6 7 8 8 9 9 9 9 9 10 10 10 10 10 10 10 10 11 11 11 11 11 12 12 12 12 12
10 9 8 8 8 7 7 7 7 7 7 6 6 6 7 7 8 8 8 9 10 10 10 10 11 10 10 10 10 11 11 11 12 12 13 13 14 14 14 14 14 14 14
10 9 9 9 8 8 8 8 8 8 7 7 7 7 8 8 8 9 9 10 11 12 12 12 12 11 11 12 12 12 13 13 14 15 15 16 16 16 16 17 16 16 16
9 9 9 9 9 8 9 9 9 8 8 8 8 8 9 10 10 10 10 11 11 12 13 12 12 12 13 13 14 14 14 15 16 16 17 18 18 18 18 18 18 18 18
10 10 10 10 10 9 9 9 9 9 10 10 10 10 10 11 11 11 11 11 11 12 12 13 13 13 14 14 15 16 17 17 18 18 18 19 19 19 19 20 20 20 20
10 11 11 11 11 10 10 10 11 11 11 11 11 10 11 12 12 12 12 12 12 13 14 14 15 15 15 16 17 17 18 19 19 19 19 20 20 20 20 21 22 22 23
11 11 12 12 12 11 12 11 11 11 11 12 12 12 12 12 12 12 13 13 14 14 14 15 16 16 17 18 18 19 19 20 21 21 21 22 23 23 23 23 24 25 24
12 12 13 13 12 12 12 11 11 11 11 12 13 13 13 13 13 13 13 14 14 15 15 16 16 17 18 19 19 20 20 21 22 23 24 25 25 25 25 26 26 26 26
13 13 13 13 13 12 11 11 11 11 11 12 13 13 13 13 14 14 14 14 15 15 15 15 16 17 18 19 19 20 21 22 23 24 25 26 26 27 27 28 27 27 27
13 13 13 13 13 12 12 13 13 13 13 13 13 14 14 14 15 15 15 15 15 15 16 16 17 18 19 20 21 22 22 22 23 24 25 26 27 27 28 29 29 28 28
13 13 14 13 13 13 13 14 14 14 14 14 14 15 15 15 15 16 16 17 17 17 18 19 19 19 20 21 22 23 24 24 25 25 25 26 26 27 28 28 29 29 29
14 14 14 14 14 13 13 14 15 15 15 15 15 15 15 15 16 17 18 19 19 20 20 20 21 21 22 23 23 24 24 25 25 26 27 26 27 28 29 29 30 30 31
14 14 13 14 14 14 15 15 15 15 16 16 16 16 16 17 17 18 19 20 21 21 21 22 23 23 24 24 25 25 25 26 27 28 28 28 29 29 29 29 30 31 31
15 14 14 15 15 15 15 15 16 16 16 16 17 17 18 18 19 19 20 21 22 23 23 24 24 24 25 25 26 26 27 27 27 28 29 30 30 31 31 31 31 31 31
15 15 16 16 16 16 16 16 17 17 17 17 17 18 19 19 21 21 22 23 24 25 25 25 25 26 26 27 27 28 28 28 29 29 30 31 32 32 32 32 32 32 33
16 16 17 17 18 17 17 17 17 17 18 18 19 19 20 21 22 23 24 25 26 26 26 27 27 27 27 28 28 29 29 29 30 31 31 32 32 32 33 33 34 34 35
18 18 19 18 18 18 18 18 19 19 20 20 21 21 22 23 23 24 25 26 27 27 28 28 28 28 28 29 30 30 30 31 31 31 31 32 33 33 34 34 34 35 35
Wind_Direction
31 26 17 19 21 14 4 5 9 5 22 15 12 10 22 17 351 325 310 278 278 285 281 272 269 267 286 290 281 272 274 265 253 251 236 235 235 223 228 230 231 240 248
356 2 4 7 10 3 358 358 1 353 340 317 324 336 317 318 319 301 295 291 282 276 273 278 271 274 289 282 284 270 269 260 266 262 247 244 241 241 245 249 246 248 250
342 345 352 352 353 349 341 339 341 338 336 320 313 309 321 320 304 289 288 292 287 279 281 277 272 278 285 285 284 289 277 259 265 268 263 262 255 256 253 251 254 256 258
341 342 328 331 331 332 338 326 320 319 315 310 304 291 298 302 301 291 286 283 288 290 291 291 285 287 285 285 280 286 276 268 271 268 271 279 277 274 268 259 256 258 261
323 331 317 319 323 322 327 322 311 309 307 304 298 286 288 286 287 285 280 276 281 287 287 289 286 279 278 277 276 279 278 281 276 268 264 273 281 284 278 270 269 265 263
318 322 316 317 317 317 317 315 306 301 301 302 297 289 280 278 281 279 276 276 278 282 279 282 281 276 275 278 279 280 279 278 279 274 269 272 277 283 280 273 273 272 270
314 310 313 313 316 318 314 310 305 301 299 299 295 285 275 274 276 276 276 276 278 282 284 283 280 280 277 276 276 277 278 275 275 275 272 272 275 277 277 276 274 271 270
314 305 303 306 312 314 313 310 304 298 299 301 292 281 274 278 277 275 278 278 280 283 284 282 283 281 278 277 277 275 276 272 269 268 270 274 276 275 278 276 275 272 272
314 311 304 302 306 309 312 311 304 290 293 298 296 292 281 277 283 282 279 279 281 281 281 280 281 283 284 279 277 278 275 271 269 268 269 271 274 276 278 276 275 274 273
316 312 310 299 300 301 306 309 307 296 292 294 294 292 284 279 283 285 282 279 280 282 283 283 285 283 283 282 279 277 274 272 271 272 271 271 272 274 275 276 275 274 274
320 315 313 304 301 299 298 300 298 293 294 295 293 294 291 282 283 283 280 280 281 281 281 279 282 284 282 283 282 280 275 275 273 273 273 272 271 272 272 275 276 276 277
316 312 305 303 300 301 298 294 292 290 289 294 297 298 295 284 285 287 286 284 282 282 282 280 281 279 278 281 280 280 278 277 276 274 274 273 272 271 272 274 273 274 276
314 314 309 303 300 302 300 297 295 290 287 291 295 299 298 293 290 290 289 285 284 283 284 283 280 279 281 282 281 280 280 279 277 277 276 274 274 273 273 273 272 272 274
313 312 311 305 302 301 300 297 293 290 289 290 293 296 298 298 296 292 288 286 285 288 289 285 283 283 284 285 283 283 281 281 281 279 278 277 275 274 273 274 273 272 272
311 310 308 308 304 300 299 294 290 288 288 290 293 296 297 296 295 293 292 289 287 288 289 288 285 286 286 287 285 283 283 282 281 279 278 278 277 275 275 276 276 276 275
308 307 304 304 302 298 296 294 288 287 287 288 289 291 295 295 296 293 292 293 291 288 287 288 289 289 290 290 289 286 282 281 281 281 279 278 279 277 276 278 279 280 279
307 305 304 303 299 298 296 295 290 291 289 290 292 292 293 293 296 297 297 296 293 291 288 287 287 289 290 291 293 290 286 285 284 282 280 279 279 279 278 279 278 279 279
307 308 305 303 298 294 293 292 290 293 291 292 295 296 296 294 293 294 295 296 295 294 293 292 290 291 292 292 293 294 293 290 289 286 284 283 281 281 280 279 278 278 280
303 307 307 303 299 295 293 292 290 290 288 290 292 293 295 293 292 293 295 297 296 294 294 295 295 295 296 294 293 294 294 292 292 289 288 287 286 284 283 282 280 280 280
301 305 303 303 301 296 294 294 293 293 290 288 290 292 293 293 292 293 296 298 297 295 294 294 293 295 296 296 295 294 294 293 292 291 291 290 288 286 284 283 282 282 282
299 302 302 302 303 298 296 296 298 297 292 290 290 292 292 293 293 293 295 297 297 296 295 295 295 296 296 296 296 295 294 293 292 291 289 288 288 289 287 285 284 283 283
298 300 297 297 300 300 297 295 298 299 292 288 290 291 292 295 295 295 295 296 297 297 296 296 296 296 296 296 296 296 294 293 293 292 291 291 291 290 288 287 287 286 284
294 295 294 294 295 296 296 295 296 295 292 289 291 290 290 293 295 295 295 297 297 297 297 297 296 297 296 296 296 296 295 294 292 292 292 291 291 291 289 288 286 285 284
292 294 294 295 295 294 294 295 294 293 290 291 292 291 291 293 294 294 294 294 295 296 296 295 296 296 296 296 296 297 296 295 293 292 292 292 293 292 290 287 286 285 284
289 292 297 297 296 292 290 292 292 292 292 293 294 293 293 293 295 295 296 296 296 296 296 296 296 295 296 295 295 296 296 295 294 292 291 292 292 292 290 289 287 285 285
287 290 294 295 295 294 290 291 292 292 294 293 294 295 295 295 294 295 296 297 297 296 296 296 295 294 294 294 294 296 296 296 295 295 293 291 290 290 290 289 288 286 286
Height
5907 5907 5906 5906 5905 5905 5904 5904 5903 5902 5902 5901 5901 5901 5900 5900 5900 5899 5899 5899 5899 5898 5898 5898 5898 5898 5898 5898 5897 5897 5897 5897 5897 5897 5897 5897 5898 5898 5898 5898 5898 5898 5898
5907 5907 5906 5906 5905 5905 5904 5903 5903 5902 5901 5901 5901 5900 5900 5900 5899 5899 5899 5898 5898 5898 5898 5897 5897 5897 5897 5897 5897 5896 5897 5897 5896 5896 5897 5897 5897 5897 5897 5897 5897 5898 5898
5907 5906 5906 5905 5905 5904 5904 5903 5902 5902 5901 5901 5900 5900 5899 5899 5899 5899 5898 5898 5898 5897 5897 5897 5897 5897 5896 5896 5896 5896 5896 5896 5896 5895 5896 5896 5896 5896 5896 5896 5896 5896 5897
5906 5906 5906 5905 5904 5904 5903 5903 5902 5901 5901 5900 5900 5899 5899 5898 5898 5898 5898 5898 5897 5897 5897 5897 5896 5896 5896 5896 5896 5895 5895 5895 5895 5895 5895 5895 5895 5895 5895 5895 5895 5895 5895
5906 5905 5905 5905 5904 5903 5903 5902 5901 5900 5900 5899 5899 5898 5898 5897 5897 5897 5897 5897 5897 5896 5896 5896 5896 5895 5895 5895 5895 5895 5894 5894 5894 5894 5894 5894 5894 5894 5894 5894 5894 5894 5894
5905 5905 5905 5904 5903 5903 5902 5901 5900 5899 5899 5898 5897 5897 5897 5896 5896 5896 5896 5896 5896 5895 5895 5895 5895 5894 5894 5894 5894 5893 5893 5893 5893 5893 5893 5893 5893 5893 5892 5892 5892 5892 5892
5905 5904 5904 5903 5902 5901 5900 5899 5899 5898 5897 5897 5896 5896 5895 5895 5895 5895 5895 5895 5895 5894 5894 5894 5893 5893 5893 5892 5892 5892 5892 5892 5891 5891 5891 5891 5891 5891 5891 5890 5890 5890 5890
5904 5903 5903 5902 5901 5900 5899 5898 5897 5897 5896 5896 5895 5895 5895 5895 5894 5894 5894 5894 5893 5893 5893 5892 5892 5891 5891 5890 5890 5890 5890 5890 5890 5890 5889 5889 5889 5889 5889 5888 5888 5888 5888
5903 5902 5901 5900 5900 5899 5898 5897 5896 5896 5896 5895 5894 5894 5894 5894 5893 5893 5892 5892 5892 5891 5891 5890 5890 5889 5889 5888 5888 5888 5888 5887 5887 5887 5887 5887 5887 5887 5887 5886 5886 5885 5885
5902 5900 5899 5899 5898 5897 5896 5896 5895 5895 5894 5894 5893 5892 5892 5892 5892 5891 5891 5890 5889 5889 5888 5888 5888 5887 5887 5886 5886 5885 5885 5885 5885 5885 5885 5884 5884 5884 5884 5883 5883 5883 5882
5901 5899 5898 5897 5897 5896 5895 5894 5894 5893 5893 5892 5891 5891 5890 5890 5890 5889 5889 5888 5888 5887 5886 5886 5885 5884 5884 5883 5883 5883 5882 5882 5882 5882 5882 5881 5881 5881 5880 5880 5879 5879 5878
5899 5898 5897 5896 5895 5894 5894 5893 5892 5891 5891 5891 5890 5889 5889 5888 5887 5887 5886 5886 5885 5884 5883 5883 5882 5882 5881 5880 5880 5880 5879 5879 5879 5878 5878 5878 5877 5876 5876 5876 5875 5875 5874
5897 5896 5896 5895 5894 5893 5892 5891 5890 5890 5890 5889 5888 5888 5887 5886 5885 5884 5884 5883 5882 5881 5880 5880 5879 5878 5878 5877 5877 5876 5876 5875 5875 5874 5874 5873 5873 5872 5872 5871 5871 5870 5870
5896 5895 5894 5893 5892 5891 5890 5889 5889 5888 5888 5887 5886 5886 5885 5884 5883 5882 5881 5881 5880 5879 5878 5877 5875 5875 5874 5874 5873 5872 5872 5871 5871 5870 5869 5868 5868 5867 5867 5866 5866 5865 5864
5894 5893 5892 5891 5890 5889 5888 5888 5887 5886 5885 5885 5884 5883 5882 5881 5880 5879 5878 5877 5877 5876 5875 5873 5872 5871 5870 5870 5869 5868 5867 5867 5866 5865 5864 5863 5863 5862 5861 5860 5860 5859 5858
5892 5891 5890 5889 5888 5887 5886 5885 5884 5884 5883 5882 5881 5880 5879 5878 5877 5876 5875 5874 5873 5872 5871 5869 5868 5867 5866 5865 5864 5863 5862 5861 5860 5860 5859 5858 5857 5856 5855 5854 5853 5852 5851
5889 5888 5887 5886 5885 5884 5883 5882 5881 5881 5880 5879 5878 5877 5876 5875 5874 5873 5871 5870 5869 5868 5867 5866 5864 5863 5862 5861 5859 5858 5857 5855 5854 5853 5852 5851 5850 5849 5848 5847 5846 5845 5844
5887 5886 5885 5884 5882 5881 5880 5879 5879 5878 5877 5876 5875 5874 5873 5872 5871 5869 5868 5867 5865 5864 5863 5862 5860 5859 5858 5856 5855 5853 5851 5849 5848 5847 5846 5844 5843 5842 5841 5839 5838 5837 5836
5884 5883 5882 5880 5879 5878 5877 5877 5876 5875 5874 5873 5872 5871 5870 5868 5867 5866 5864 5863 5861 5860 5859 5858 5856 5855 5853 5852 5850 5848 5846 5844 5842 5840 5839 5837 5835 5834 5832 5831 5830 5830 5828
5881 5880 5879 5877 5876 5875 5874 5874 5873 5871 5870 5869 5868 5867 5866 5865 5863 5862 5861 5859 5858 5856 5854 5853 5852 5850 5848 5846 5844 5842 5841 5838 5836 5834 5832 5830 5829 5827 5825 5824 5823 5821 5820
5878 5877 5875 5874 5873 5872 5871 5870 5869 5868 5867 5865 5864 5863 5862 5861 5860 5858 5857 5855 5853 5852 5850 5848 5846 5845 5843 5841 5839 5836 5834 5832 5830 5827 5826 5824 5822 5820 5817 5816 5814 5813 5811
5875 5873 5872 5870 5869 5869 5868 5867 5866 5864 5862 5861 5860 5859 5858 5857 5855 5854 5852 5850 5849 5847 5845 5843 5841 5839 5837 5834 5832 5830 5827 5825 5823 5821 5819 5816 5814 5811 5809 5807 5806 5804 5802
5871 5870 5868 5867 5866 5865 5864 5863 5862 5860 5858 5857 5856 5855 5854 5852 5851 5849 5847 5845 5844 5841 5839 5837 5835 5833 5830 5828 5826 5823 5820 5818 5816 5814 5811 5808 5806 5803 5800 5798 5797 5795 5793
5868 5866 5865 5863 5862 5861 5859 5858 5857 5856 5854 5853 5851 5850 5849 5847 5845 5843 5842 5840 5838 5836 5833 5831 5829 5826 5823 5821 5818 5816 5813 5811 5808 5806 5803 5800 5797 5794 5792 5789 5788 5786 5784
5864 5863 5861 5859 5858 5856 5855 5854 5853 5851 5850 5848 5846 5845 5843 5842 5840 5838 5836 5834 5831 5829 5826 5824 5821 5819 5816 5814 5811 5809 5806 5803 5800 5798 5795 5792 5788 5785 5783 5780 5778 5776 5774
5860 5859 5857 5856 5854 5852 5851 5849 5848 5846 5845 5843 5841 5840 5838 5836 5834 5832 5830 5827 5825 5822 5819 5817 5814 5811 5809 5806 5804 5801 5798 5795 5792 5789 5785 5782 5779 5776 5774 5771 5768 5765 5763